K3HM Weather Reports


time (UTC)temp
C
wind
direction
speed
KPH
gust
KPH
rain 1hr
cm
rain 24hr
cm
rain mn
cm
humidity
%
barometer
mb
20260504050259 0 29 0.0 0.0 0.00 0.00 0.00 93 1015.1
20260504045757 0 29 0.0 0.0 0.00 0.00 0.00 92 1015.1
20260504045256 0 29 0.0 0.0 0.00 0.00 0.00 92 1015.4
20260504044754 0 29 0.0 0.0 0.00 0.00 0.00 93 1015.3
20260504044251 0 31 0.0 0.0 0.00 0.00 0.00 93 1015.4
20260504043748 0 31 0.0 0.0 0.00 0.00 0.00 93 1015.4
20260504043245 0 31 0.0 0.0 0.00 0.00 0.00 92 1015.3
20260504042743 0 31 0.0 0.0 0.00 0.00 0.00 92 1015.0
20260504042239 0 31 0.0 0.0 0.00 0.00 0.00 91 1015.4
20260504041736 0 32 0.0 0.0 0.00 0.00 0.00 91 1015.1
20260504041232 0 32 0.0 0.0 0.00 0.00 0.00 91 1015.3
20260504040728 0 32 0.0 0.0 0.00 0.00 0.00 89 1015.4
20260504040225 0 32 0.0 0.0 0.00 0.00 0.00 88 1015.3
20260504035721 0 32 0.0 0.0 0.00 0.00 0.00 87 1015.4
20260504035219 0 22 0.0 0.0 0.00 0.00 0.00 87 1015.3
20260504034716 0 22 0.0 0.0 0.00 0.00 0.00 88 1015.3
20260504034213 0 24 0.0 0.0 0.00 0.00 0.00 88 1015.5
20260504033711 1 25 0.0 0.0 0.00 0.00 0.00 88 1015.4
20260504033208 1 24 0.0 0.0 0.00 0.00 0.00 87 1015.3
20260504032705 1 24 0.0 0.0 0.00 0.00 0.00 87 1015.5
20260504032202 1 24 0.0 0.0 0.00 0.00 0.00 87 1015.4
20260504031659 1 24 0.0 0.0 0.00 0.00 0.00 88 1015.5
20260504031155 1 24 0.0 0.0 0.00 0.00 0.00 87 1015.4
20260504030652 1 23 0.0 0.0 0.00 0.00 0.00 87 1015.4
20260504030149 1 22 0.0 0.0 0.00 0.00 0.00 85 1015.1
20260504025645 1 32 0.0 0.0 0.00 0.00 0.00 84 1015.4
20260504025142 1 32 0.0 0.0 0.00 0.00 0.00 83 1015.4
20260504024640 1 19 0.0 0.0 0.00 0.00 0.00 85 1015.5
20260504024136 1 16 0.0 0.0 0.00 0.00 0.00 85 1015.4
20260504023633 1 16 0.0 0.0 0.00 0.00 0.00 85 1015.4
20260504023129 1 17 0.0 0.0 0.00 0.00 0.00 85 1015.3
20260504022625 1 17 0.0 0.0 0.00 0.00 0.00 84 1015.5
20260504022121 2 17 0.0 0.0 0.00 0.00 0.00 83 1015.4
20260504021620 2 16 0.0 0.0 0.00 0.00 0.00 82 1015.6
20260504021116 2 15 0.0 0.0 0.00 0.00 0.00 79 1015.5
20260504020613 2 15 0.0 0.0 0.00 0.00 0.00 78 1015.5
20260504020109 2 17 0.0 0.0 0.00 0.00 0.00 80 1015.3
20260504015606 3 17 0.0 0.0 0.00 0.00 0.00 79 1015.3
20260504015101 3 17 0.0 0.0 0.00 0.00 0.00 77 1015.4
20260504014558 3 17 0.0 0.0 0.00 0.00 0.00 76 1015.3
20260504014055 3 17 0.0 0.0 0.00 0.00 0.00 76 1015.4
20260504013553 3 17 0.0 0.0 0.00 0.00 0.00 76 1015.1
20260504013049 3 17 0.0 0.0 0.00 0.00 0.00 76 1015.3
20260504012547 3 17 0.0 0.0 0.00 0.00 0.00 74 1015.1
20260504012045 4 16 0.0 0.0 0.00 0.00 0.00 73 1015.1
20260504011541 3 13 0.0 1.6 0.00 0.00 0.00 74 1015.3
20260504011037 4 17 0.0 0.0 0.00 0.00 0.00 73 1014.9
20260504010533 5 17 0.0 0.0 0.00 0.00 0.00 69 1015.4
20260504010029 5 17 0.0 0.0 0.00 0.00 0.00 66 1015.4
20260504005526 5 17 0.0 0.0 0.00 0.00 0.00 64 1015.1
20260504005024 5 15 0.0 0.0 0.00 0.00 0.00 64 1014.9
20260504004521 6 15 1.6 1.6 0.00 0.00 0.00 62 1015.1
20260504004018 6 16 0.0 0.0 0.00 0.00 0.00 58 1015.1
20260504003514 6 6 0.0 1.6 0.00 0.00 0.00 60 1014.9
20260504003011 6 16 0.0 0.0 0.00 0.00 0.00 60 1015.0
20260504002508 6 16 0.0 0.0 0.00 0.00 0.00 60 1015.0
20260504002006 7 17 0.0 0.0 0.00 0.00 0.00 57 1014.9
20260504001503 7 16 0.0 0.0 0.00 0.00 0.00 55 1014.9
20260504000959 7 33 0.0 0.0 0.00 0.00 0.00 52 1014.9
20260504000457 8 34 0.0 0.0 0.00 0.00 0.00 52 1015.1
20260503235954 8 59 0.0 1.6 0.00 0.00 0.00 51 1015.0
20260503235451 8 359 3.2 3.2 0.00 0.00 0.00 50 1015.0
20260503234948 8 46 1.6 1.6 0.00 0.00 0.00 50 1015.0
20260503234446 8 352 1.6 1.6 0.00 0.00 0.00 50 1015.0
20260503233944 9 127 1.6 1.6 0.00 0.00 0.00 48 1015.0
20260503233440 9 7 1.6 1.6 0.00 0.00 0.00 47 1014.9
20260503232936 9 339 3.2 3.2 0.00 0.00 0.00 48 1015.0
20260503232433 10 142 4.8 6.4 0.00 0.00 0.00 47 1014.7
20260503231932 10 228 4.8 4.8 0.00 0.00 0.00 47 1014.9
20260503231429 10 310 3.2 4.8 0.00 0.00 0.00 46 1014.8
20260503230925 10 286 3.2 3.2 0.00 0.00 0.00 46 1014.8
20260503230421 10 324 1.6 3.2 0.00 0.00 0.00 45 1015.0
20260503225920 10 290 6.4 6.4 0.00 0.00 0.00 45 1014.9
20260503225416 10 259 6.4 12.9 0.00 0.00 0.00 44 1014.8
20260503224911 10 296 1.6 1.6 0.00 0.00 0.00 46 1014.7
20260503224409 10 347 6.4 9.7 0.00 0.00 0.00 45 1014.8
20260503223906 10 34 1.6 4.8 0.00 0.00 0.00 46 1015.0
20260503223404 10 241 8.0 9.7 0.00 0.00 0.00 45 1014.9
20260503222859 10 282 6.4 6.4 0.00 0.00 0.00 46 1015.1
20260503222358 10 333 4.8 4.8 0.00 0.00 0.00 45 1015.0
20260503221856 10 244 6.4 11.3 0.00 0.00 0.00 45 1015.0
20260503221354 11 223 6.4 9.7 0.00 0.00 0.00 43 1015.1
20260503220850 11 264 4.8 9.7 0.00 0.00 0.00 43 1014.9
20260503220347 11 315 4.8 6.4 0.00 0.00 0.00 45 1014.9
20260503215844 10 319 6.4 9.7 0.00 0.00 0.00 44 1015.0
20260503215341 10 194 6.4 6.4 0.00 0.00 0.00 44 1015.0
20260503214839 11 343 3.2 3.2 0.00 0.00 0.00 43 1015.1
20260503214336 11 236 6.4 11.3 0.00 0.00 0.00 41 1015.1
20260503213833 11 271 11.3 12.9 0.00 0.00 0.00 43 1015.1
20260503213331 11 350 1.6 3.2 0.00 0.00 0.00 43 1015.0
20260503212827 11 241 4.8 4.8 0.00 0.00 0.00 43 1015.1
20260503212325 11 270 11.3 12.9 0.00 0.00 0.00 42 1015.0
20260503211822 11 313 6.4 6.4 0.00 0.00 0.00 44 1015.0
20260503211319 10 274 3.2 4.8 0.00 0.00 0.00 46 1015.3
20260503210819 11 221 11.3 16.1 0.00 0.00 0.00 45 1015.1
20260503210317 11 289 4.8 4.8 0.00 0.00 0.00 44 1014.9
20260503205811 11 323 6.4 6.4 0.00 0.00 0.00 43 1015.0
20260503205308 10 196 4.8 4.8 0.00 0.00 0.00 44 1015.1
20260503204805 10 46 3.2 4.8 0.00 0.00 0.00 43 1015.3
20260503204303 11 36 1.6 1.6 0.00 0.00 0.00 42 1015.3
20260503203800 11 220 4.8 6.4 0.00 0.00 0.00 41 1015.3
20260503203257 11 291 4.8 4.8 0.00 0.00 0.00 42 1015.3
20260503202754 11 186 4.8 6.4 0.00 0.00 0.00 44 1015.3
20260503202252 11 302 14.5 17.7 0.00 0.00 0.00 40 1015.3
20260503201749 12 235 12.9 16.1 0.00 0.00 0.00 41 1015.1
20260503201247 11 235 8.0 11.3 0.00 0.00 0.00 43 1015.3
20260503200743 12 12 3.2 4.8 0.00 0.00 0.00 41 1015.4
20260503200239 11 252 8.0 9.7 0.00 0.00 0.00 44 1015.4
20260503195736 12 252 6.4 9.7 0.00 0.00 0.00 42 1015.4
20260503195233 11 193 6.4 11.3 0.00 0.00 0.00 44 1015.5
20260503194731 11 259 9.7 12.9 0.00 0.00 0.00 43 1015.5
20260503194226 12 261 8.0 9.7 0.00 0.00 0.00 39 1015.6
20260503193723 10 341 3.2 3.2 0.00 0.00 0.00 45 1015.5
20260503193219 11 15 3.2 6.4 0.00 0.00 0.00 45 1015.6
20260503192715 11 48 6.4 9.7 0.00 0.00 0.00 43 1015.8
20260503192210 11 216 6.4 9.7 0.00 0.00 0.00 43 1015.6
20260503191707 12 67 4.8 6.4 0.00 0.00 0.00 44 1015.7
20260503191204 11 349 3.2 3.2 0.00 0.00 0.00 44 1015.7
20260503190701 11 314 4.8 4.8 0.00 0.00 0.00 44 1015.7
20260503190158 11 223 14.5 20.9 0.00 0.00 0.00 43 1015.6
20260503185655 11 304 9.7 12.9 0.00 0.00 0.00 44 1015.8
20260503185150 10 319 4.8 4.8 0.00 0.00 0.00 44 1015.8
20260503184645 11 36 4.8 6.4 0.00 0.00 0.00 43 1016.0
20260503184142 10 6 1.6 6.4 0.00 0.00 0.00 45 1015.9
20260503183638 10 270 3.2 3.2 0.00 0.00 0.00 48 1016.0
20260503183136 10 211 4.8 4.8 0.00 0.00 0.00 46 1016.0
20260503182634 10 346 11.3 14.5 0.00 0.00 0.00 44 1016.1
20260503182132 10 279 8.0 12.9 0.00 0.00 0.00 46 1016.3
20260503181629 11 334 9.7 16.1 0.00 0.00 0.00 44 1016.0
20260503181125 10 329 4.8 6.4 0.00 0.00 0.00 44 1016.2
20260503180622 11 337 1.6 3.2 0.00 0.00 0.00 46 1016.0
20260503180120 10 80 1.6 4.8 0.00 0.00 0.00 47 1016.3
20260503175617 10 25 3.2 4.8 0.00 0.00 0.00 47 1016.3
20260503175114 10 170 8.0 12.9 0.00 0.00 0.00 48 1016.3
20260503174611 9 356 4.8 6.4 0.00 0.00 0.00 48 1016.5
20260503174108 10 317 3.2 3.2 0.00 0.00 0.00 45 1016.4
20260503173602 8 214 12.9 16.1 0.00 0.00 0.00 46 1016.2
20260503173059 9 64 4.8 9.7 0.00 0.00 0.00 48 1016.5
20260503172556 8 262 8.0 9.7 0.00 0.00 0.00 50 1016.4
20260503172053 8 10 8.0 11.3 0.00 0.00 0.00 48 1016.5
20260503171550 8 12 1.6 3.2 0.00 0.00 0.00 48 1016.4
20260503171047 8 193 3.2 9.7 0.00 0.00 0.00 48 1016.5
20260503170543 8 0 6.4 9.7 0.00 0.00 0.00 47 1016.8
20260503150936 7 263 9.7 11.3 0.00 0.00 0.00 51 1017.2
20260503150433 6 288 8.0 11.3 0.00 0.00 0.00 51 1017.1
20260503131326 4 47 1.6 1.6 0.00 0.00 0.00 68 1016.8
20260503130823 4 255 4.8 9.7 0.00 0.00 0.00 70 1017.0
20260503130321 4 69 1.6 3.2 0.00 0.00 0.00 69 1017.0
20260503110714 -1 333 3.2 3.2 0.00 0.00 0.00 89 1016.4
20260503110211 -1 70 0.0 0.0 0.00 0.00 0.00 90 1016.3
20260503100138 -2 37 0.0 0.0 0.00 0.00 0.00 92 1015.4
20260503081527 -1 37 0.0 0.0 0.00 0.00 0.00 88 1015.0
20260503081025 -1 50 0.0 0.0 0.00 0.00 0.00 87 1015.1
20260503080520 -1 21 1.6 1.6 0.00 0.00 0.00 88 1015.1
20260503072454 -1 16 0.0 1.6 0.00 0.00 0.00 88 1014.7
20260503071951 -1 359 1.6 1.6 0.00 0.00 0.00 88 1014.7
20260503071448 -1 23 1.6 1.6 0.00 0.00 0.00 89 1014.9
20260503070944 -1 355 0.0 0.0 0.00 0.00 0.00 89 1014.6
20260503070441 -1 22 0.0 0.0 0.00 0.00 0.00 88 1014.7
20260503054900 0 357 1.6 3.2 0.00 0.00 0.00 86 1014.8
20260503054356 0 8 0.0 1.6 0.00 0.00 0.00 87 1014.7
20260503053854 0 341 0.0 0.0 0.00 0.00 0.00 86 1014.8